Home   Weather   Sharjah   Past weeks

Flag for United Arab Emirates Past Weather in Sharjah, Sharjah, United Arab Emirates — Yesterday and Last 2 Weeks

Now
72 °F

Sunny.


Feels Like: 76 °F
Forecast: 60 / 76 °F
Wind: 9 mph from Northwest

Location: Sharjah International Airport

Current Time: Feb 28, 2017 at 6:52:42 pm

Latest Report: Feb 28, 2017 at 6:00 pm


Visibility: 10 mi

Pressure: 30.07 "Hg

Humidity: 61%

Dew Point: 57 °F

Location of SharjahLocation

Past Weather in Sharjah — Graph

°F

Sharjah Temperature Yesterday

Maximum temperature yesterday: 72 °F (at 12:00 pm)
Minimum temperature yesterday: 59 °F (at 5:00 am)
Average temperature yesterday: 66 °F

High & Low Weather Summary for the Past Weeks

 TemperatureHumidityPressure
High86 °F (Feb 17, 1:00 pm)94% (Feb 18, 5:00 am)30.30 "Hg (Feb 18, 5:00 am)
Low57 °F (Feb 20, 2:00 am)24% (Feb 17, 1:00 pm)29.83 "Hg (Feb 17, 2:00 pm)
Average69 °F67%30.06 "Hg
* Reported Feb 13 5:00 pm — Feb 28 5:00 pm, Sharjah, Weather by CustomWeather, © 2017

Note: Actual official high and low records may vary slightly from our data, if they occured in-between our weather recording intervals... More about our weather records

Advertising

Sharjah Weather History for the Previous 24 Hours

Scroll right to see more
 ConditionsComfort  
Time TempWeatherWind HumidityBarometerVisibility
5:00 pm
Tue, Feb 28
73 °FSunny.9 mph53%30.07 "Hg10 mi
4:00 pm75 °FPassing clouds.9 mph47%30.07 "HgN/A
3:00 pm75 °FSunny.9 mph47%30.07 "Hg10 mi
2:00 pm75 °FPassing clouds.8 mph47%30.07 "HgN/A
1:00 pm75 °FPassing clouds.3 mph47%30.09 "HgN/A
12:00 pm73 °FSunny.3 mph47%30.12 "Hg10 mi
11:00 am70 °FPassing clouds.3 mph57%30.15 "HgN/A
10:00 am68 °FClear.2 mph60%30.15 "Hg5 mi
9:00 am64 °FHaze.5 mph68%30.15 "Hg3 mi
8:00 am57 °FFog.6 mph82%30.12 "Hg2 mi
7:00 am57 °FHaze.2 mph82%30.09 "Hg2 mi
6:00 am57 °FClear.2 mph88%30.07 "Hg4 mi
5:00 am57 °FClear.3 mph82%30.07 "Hg5 mi
4:00 am59 °FClear.3 mph82%30.07 "Hg10 mi
3:00 am61 °FClear.5 mph77%30.04 "Hg10 mi
2:00 am61 °FPassing clouds.3 mph77%30.07 "HgN/A
1:00 am59 °FClear.3 mph82%30.07 "Hg10 mi
12:00 am61 °FClear.2 mph77%30.07 "Hg10 mi
11:00 pm
Mon, Feb 27
64 °FClear.1 mph68%30.07 "Hg10 mi
10:00 pm66 °FPassing clouds.3 mph60%30.07 "HgN/A
9:00 pm68 °FClear.3 mph56%30.04 "Hg10 mi
8:00 pm68 °FClear.5 mph60%30.04 "Hg10 mi
7:00 pm68 °FClear.6 mph60%30.04 "Hg10 mi
6:00 pm70 °FSunny.9 mph60%30.01 "Hg10 mi
Weather by CustomWeather, © 2017

See weather overviewHow to use our weather pages